Flag for Canada Weather past 2 weeks in Whistler, British Columbia, Canada

Now
40 °F

Chilly.


Feels Like: 40 °F
Forecast: 35 / 38 °F
Wind: 1 mph from Northeast

Location: Squamish Airport

Current Time: Dec 19, 2014 at 12:04:24 AM

Latest Report: Dec 18, 2014 at 11:00 PM


Visibility: N/A

Pressure: 29.68 "Hg

Humidity: 98%

Dew point: 39 °F

Location of WhistlerLocation

Historic Weather in Whistler — Graph

°F

Whistler temperature yesterday

Maximum temperature yesterday: 41 °F (at 1:00 PM)
Minimum temperature yesterday: 38 °F (at 3:00 AM)
Average temperature yesterday: 39 °F

Past Weeks' High & Low Weather Summary

 TemperatureHumidityPressure
High58 °F (Dec 9, 2:00 PM)100% (Dec 5, 4:00 AM)30.29 "Hg (Dec 5, 4:00 AM)
Low25 °F (Dec 4, 4:00 AM)61% (Dec 9, 3:00 PM)29.15 "Hg (Dec 10, 6:00 PM)
Average40 °F93%29.86 "Hg
* Reported Dec 3 11:00 PM — Dec 18 11:00 PM, Whistler, Weather by CustomWeather, © 2014

Note: Actual official high and low records may vary slightly from our data, if they occured in-between our weather recording intervals... More about our weather records

Advertising

Whistler weather history for previous 24 hours

 ConditionsComfort  
Time TempWeatherWind HumidityBarometerVisibility
11:00 PM
Dec 18
40 °FChilly.1 mph98%29.68 "HgN/A
10:00 PM40 °FChilly.2 mph99%29.67 "HgN/A
9:00 PM40 °FChilly.2 mph100%29.68 "HgN/A
8:00 PM40 °FChilly.2 mph100%29.70 "HgN/A
7:00 PM40 °FChilly.2 mph99%29.72 "HgN/A
6:00 PM40 °FChilly.2 mph100%29.73 "HgN/A
5:00 PM40 °FChilly.2 mph100%29.74 "HgN/A
4:00 PM40 °FChilly.3 mph99%29.77 "HgN/A
3:00 PM40 °FQuite cool.3 mph93%29.80 "HgN/A
2:00 PM40 °FQuite cool.2 mph92%29.81 "HgN/A
1:00 PM41 °FQuite cool.3 mph100%29.84 "HgN/A
12:00 PM40 °FChilly.2 mph100%29.87 "HgN/A
11:00 AM39 °FChilly.1 mph100%29.89 "HgN/A
10:00 AM39 °FChilly.1 mph100%29.90 "HgN/A
9:00 AM38 °FChilly.1 mph100%29.90 "HgN/A
8:00 AM38 °FChilly.1 mph100%29.90 "HgN/A
7:00 AM38 °FChilly.No wind100%29.91 "HgN/A
6:00 AM38 °FChilly.1 mph100%29.92 "HgN/A
5:00 AM38 °FChilly.1 mph100%29.91 "HgN/A
4:00 AM38 °FChilly.1 mph100%29.91 "HgN/A
3:00 AM38 °FChilly.1 mph100%29.92 "HgN/A
2:00 AM38 °FChilly.1 mph100%29.92 "HgN/A
1:00 AM38 °FChilly.1 mph100%29.91 "HgN/A
12:00 AM38 °FChilly.1 mph100%29.91 "HgN/A
Weather by CustomWeather, © 2014

See weather overviewHow to use our weather pages